Погода в Екатеринбурге

Погода в Екатеринбурге : погода сейчас, прогноз погоды и архив. Всё, что Вы хотите узнать о погоде в Екатеринбурге!

Хотите узнать прогноз погоды в Екатеринбурге? Тогда Вам сюда: Погода в Екатеринбурге

Поиск расширенной информации на нашем сайте:

Другие новости

Новости СМИ2

Главная страница сайта

Новости сайта

02.10.2013

Напоминаем, что на нашем новом сайте вы можете получить высокодетализированные прогнозы погоды по пунктам России, СНГ и мира (включающие важные для авиации метеовеличины, такие как направление и скорость ветра, видимость, явления погоды, количество и форма облачности, нижняя и верхняя граница облачности), а также ознакомиться с разнообразными материалами по авиационной метеорологии и подборкой полезных ссылок на эту тему.

Сайт Метеоцентр.Азия посвящён разработке технологий оптимизации авиаметеорологического обслуживания, включая проектирование и перспективное создание нескольких автоматизированных авиаметеорологических систем:
- система выпуска высокодетальных прогностических карт явлений погоды для нижнего воздушного пространства по России и ближнему зарубежью;
- система верификации прогнозов TAF (выпускаемых синоптиками официальных АМСГ РФ и ближнего зарубежья) и AUTOTAF (выпускаемых сайтом Метеоцентр.Азия) - выявление ошибок, онлайн-сопоставление с фактической погодой METAR, автоматическое внесение коррективов в прогнозы при резком отклонении фактической погоды от прогноза, подсчёт оправдываемости прогнозов по элементам и в целом;
- система обработки, анализа и отображения авиаметеорологической информации для применения провайдерами метеорологической информации.

Рекомендуем: TechnoPoint Екатеринбург

Погода в Екатеринбурге - сегодня

Время (UTC), дата Ветер
(°,м/с) 
Видим.   Явления Облачность Т
(°С)
Тd
(°С)
f(%) Тe
(°С)
Pmin
(гПа)
dP
(гПа)
Po
(мм)
O2
(г/м3)
Тmin Tmax R s Состояние
почвы
12 21.01.17 280 (З) 5-10{10}  0500 м  ливневой снег  10/10 600 м кучево-дожд. 
[Cb cap]
-8.1 -9.9 87 -12  992.6  1.4  718  299           
15 21.01.17 260 (З) 5-12{14}  10 км  слаб. ливневой снег  9/9 600 м кучево-дожд. 
[Cb cap]
-9.3 -13.9 69 -14  994.3  1.5  719  301    -5.7  0.7     
18 21.01.17 270 (З) 5{14}  10 км  позёмок{ливн. осадки}  9/9 600 м кучево-дожд. 
[Cb calv]
-10.4 -14.4 72 -15  995.9  1.3  720  303           
21 21.01.17 250 (З) 3{10}  10 км    3/0 верхняя 
[Ci fib]
-11.8 -15 77 -15  996.8  0.7  721  305           
00 22.01.17 230 (ЮЗ) 10 км    4/0 верхняя 
[Cs]
-12.4 -14.9 82 -14  996.7  -0.2  721  305           
03 22.01.17 240 (ЮЗ) 10 км    8/0 верхняя 
[Cs]
-13.2 -16 79 -15  996.1  -0.6  720  306  -13.2    0.0  47  равномерный
сухой снег
100% 
06 22.01.17 200 (Ю) 10 км    6/3 1000 м средняя, верхняя 
[Sc|Ac trans|Ci fib]
-12.6 -16.1 75 -15  996.1  720  305  -13.5         
09 22.01.17 240 (ЮЗ) 20000 м    9/4 600 м верхняя 
[Sc|Cs]
-10 -15.7 63 -13  994.5  -1.1  719  302           
12 22.01.17 250 (З) 4000 м  слаб. ливневой снег  10/10 600 м кучево-дожд. 
[Cb calv]
-11.3 -14.7 76 -14  994.4  -0.3  719  303           
15 22.01.17 260 (З) 10 км  {ливн. осадки}  10/8 600 м средняя 
[Sc diur, vesp|Ac As]
-12.3 -15.5 77 -16  994.5  -0.1  719  305    -9.8  0.1     
18 22.01.17 270 (З) 4{10}  4000 м  слаб. ливневой снег  10/10 600 м кучево-дожд. 
[Cb calv]
-12 -15.4 76 -16  994.8  0.3  719  304           
21 22.01.17 270 (З) 10 км  {ливн. осадки}  10/0 верхняя 
[Ci fib]
-12.7 -15.6 79 -17  995.1  0.2  719  305           
00 23.01.17 260 (З) 10 км  {ливн. осадки}  10/0 средняя, верхняя 
[Ac As|Cc]
-12.2 -15.4 77 -17  995.3  0.3  720  305           
03 23.01.17 260 (З) 10 км    9/9 600 м 
[Sc]
-11.7 -15.1 76 -16  995.5  0.3  720  304  -12.9    0.0  47  равномерный
сухой снег
100% 
06 23.01.17 250 (З) 4000 м  слаб. снег  10/0 средняя 
[As op]
-11.3 -14.3 78 -15  997.1  1.5  721  304           
09 23.01.17 300 (СЗ) 4000 м  слаб. снег  10/6 600 м средняя 
[Frnb|As op]
-8.8 -12.7 73 -13  997.5  0.8  722  302           
12 23.01.17 290 (З) 5{11}  10 км  в посл. час снег  9/6 600 м средняя 
[Sc|Ac As]
-9.4 -13.9 70 -14  999.1  1.4  723  303           
15 23.01.17 260 (З) 5{11}  4000 м  слаб. ливневой снег  10/10 600 м кучево-дожд. 
[Cb cap]
-9.9 -13.2 77 -15  1000.2  1.1  723  304    -8.6  0.2     
18 23.01.17 270 (З) 5{12}  10 км  позёмок{ливн. осадки}  4/4 600 м кучево-дожд. 
[Cb calv]
-11.2 -15 73 -16  1001.3  0.8  724  305           
21 23.01.17 260 (З) 5-10{11}  10 км  позёмок  4/4 600 м 
[Sc]
-12.2 -16 73 -17  1002.6  1.1  725  307           
00 24.01.17 270 (З) 4{13}  10 км  позёмок  8/8 600 м 
[Sc]
-12.7 -16.2 75 -17  1003.5  0.7  725  308           
03 24.01.17 270 (З) 5{10}  10 км  позёмок  3/0 верхняя 
[Cs]
-12.9 -16.3 76 -18  1004.3  0.9  726  308  -13    0.0  46  равномерный
сухой снег
100% 
06 24.01.17 270 (З) 5-10{12}  4000 м  слаб. ливневой снег  8/6 600 м кучево-дожд., верхняя 
[Cb cap|Cs]
-11.4 -15.3 73 -16  1005.3  1.2  727  307           
09 24.01.17 280 (З) 4{10}  20000 м  {ливн. осадки}  4/4 600 м 
[Sc]
-9.6 -15.1 64 -14  1005.8  0.6  727  305           
12 24.01.17 250 (З) 20000 м  {ливн. осадки}  8/4 600 м кучево-дожд., верхняя 
[Cb cap|Ci]
-11.3 -16.1 68 -13  1006.7  0.7  728  307           
Время (UTC), дата Ветер
(°,м/с) 
Видим.   Явления Облачность Т
(°С)
Тd
(°С)
f(%) Тe
(°С)
Pmin
(гПа)
dP
(гПа)
Po
(мм)
O2
(г/м3)
Тmin Tmax R s Состояние
почвы

Для получения пояснительной информации подведите курсор к названию столбца.

ПОГОДА в Екатеринбурге - архив

Всё, что Вы хотите узнать о погоде в Екатеринбурге - удобно и подробно!

Выберите нужную дату (начиная с 1 января 2015* года) и нажмите кнопку "Найти".
Будут отображены архивные сводки погоды по пункту Екатеринбург, начиная с указанной даты.


Отображать данные в формате CSV (для использования в таблицах Excel)


Внимание! Наш архив погоды предназначен исключительно для личного некоммерческого использования в познавательных целях. Если Вам необходимы официальные справки о состоянии погоды (для производственных, юридических, коммерческих и т.п. целей), обращайтесь в органы Росгидромета.

*Примечание: данная дата относится к архиву по метеостанциям СССР (Россия, СНГ, Балтия).
Архив по метеостанциям Зарубежной Европы и Азии (кроме Китая) хранится 10 дней, по другим регионам земного шара (Китай, Африка, Америка, Австралия, Океания) - 1 день.

Екатеринбург - район местоположения метеостанции


Название, широта, долгота, высота метеостанции:
Екатеринбург (город) 56.8°ш. 60.6°д. 283 м над ур. моря [Российская Федерация]

Дополнительная информация

В oтличие oт бoльшинства пoгoдных сайтoв мы публикуем пoдрoбную метеoинфoрмацию в детальнoм прoфессиoнальнoм фoрмате.

Характеристики температуры и влажнoсти вoздуха измеряются на высoте 2 м в тени вдали oт зданий и деревьев.
Скoрoсть ветра измеряется на высoте 10 м (на урoвне рoста челoвека скoрoсть ветра ниже в 1.5-2 раза). Если метеoстанция нахoдится в гoрoде или в лесу, тo скoрoсть ветра занижена на 2-4 м/с пo сравнению с oткрытым местoм. Скoрoсть ветра над акватoриями крупных рек и oзёр, а также на вершинах хoлмoв на 2-5 м/с выше, чем в oбычных услoвиях.
Атмoсфернoе давление в разных тoчках местнoсти мoжет значительнo oтличаться oт давления на метеoстанции, в зависимoсти oт услoвий рельефа (при пoдъёме на 10 м давление пoнижается примернo на 1 мм рт.ст.).